Regional Weather Roundup
Issued by NWS Sioux Falls, SD

Home | Current Version | Previous Version | Text Only | Print | Product List | Glossary On
Versions: 1 2 3 4 5 6 7 8 9 10 11 12 13 14 15 16 17 18 19 20 21 22 23 24 25 26 27 28 29 30 31 32 33 34 35 36 37 38 39 40 41 42 43 44 45 46 47 48 49 50
000
ASUS43 KFSD 030410
RWRFSD

WEATHER ROUNDUP FOR SE SOUTH DAKOTA/SW MINNESOTA/NW IOWA
NATIONAL WEATHER SERVICE SIOUX FALLS SD
1100 PM CDT TUE JUN 02 2015

NOTE: "FAIR" INDICATES FEW OR NO CLOUDS BELOW 12,000 FEET WITH NO
SIGNIFICANT WEATHER AND OR OBSTRUCTIONS TO VISIBILITY.


SDZ038>040-050-052>070-030500-
SOUTHEAST SOUTH DAKOTA

CITY           SKY/WX    TMP DP  RH WIND       PRES   REMARKS
BROOKINGS      MOCLDY    72  61  68 S18       29.83R
CHAMBERLAIN    CLOUDY    72  64  76 S9        29.78R
HURON          CLOUDY    74  63  68 S10       29.76R
MADISON        FAIR      70  63  78 S21       29.82R
MITCHELL       CLOUDY    74  63  68 S14       29.79R
SIOUX FALLS    CLOUDY    70  61  73 S17G25    29.84R
WINNER         CLOUDY    69  57  65 W25G47    29.81R THUNDER
YANKTON        CLOUDY    70  59  68 S20G26    29.83R
$$

MNZ071-072-080-081-089-090-097-098-030500-
SOUTHWEST MINNESOTA

CITY           SKY/WX    TMP DP  RH WIND       PRES   REMARKS
FAIRMONT       MOCLDY    66  50  55 S17       29.93R
JACKSON        CLEAR     66  55  68 S16G22    29.91F
LUVERNE        PTCLDY    70  57  64 S13       29.86S
MARSHALL       PTCLDY    70  54  56 S18       29.82F
MONTEVIDEO     PTCLDY    72  55  56 S15G21    29.82F
PIPESTONE      MOCLDY    70  59  68 S15       29.85S
REDWOOD FALLS  PTCLDY    70  54  56 S17       29.86R
TRACY          PTCLDY    69  57  64 S14G22    29.86R
WINDOM         CLEAR     66  55  68 S18G24    29.87F
WORTHINGTON    CLEAR     66  54  63 S17G24    29.87F
$$

IAZ001>003-012>014-020>022-031-032-NEZ013-014-SDZ071-030500-
NORTHWEST IOWA

CITY           SKY/WX    TMP DP  RH WIND       PRES   REMARKS
CHEROKEE       CLEAR     65  57  75 S8G18     29.90F
DENISON        PTCLDY    64  59  82 SE13G22   29.90F
ESTHERVILLE    PTCLDY    64  55  72 S16       29.93R
LE MARS        CLEAR     68  59  73 S14       29.88S
ORANGE CITY    CLEAR     66  57  72 S13       29.88S
SHELDON        CLEAR     68  57  68 S17       29.87F
SIOUX CITY     CLEAR     67  58  72 SE13      29.88S
SPENCER        PTCLDY    66  57  72 SE14      29.91F
STORM LAKE     CLEAR     64  55  72 S20       29.92F
$$

ABBREVIATIONS USED IN REMARKS
   TC - TEMPERATURE IN CELSIUS
  WCI - WIND CHILL INDEX
   HX - HEAT INDEX
  VSB - VISIBILITY




USA.gov is the U.S. government's official web portal to all federal, state and local government web resources and services.